Chicago Midway, IL

8:26 PM CST on January 16, 2018 (GMT -0600)
Chicago-Midway

Weather History for KMDW - January, 2015

Change the Weather History Date:

Sunday, January 25, 2015

  Actual Average Record
Temperature  
Mean Temperature 32 °F 25 °F  
Max Temperature 38 °F 32 °F 67 °F (1950)
Min Temperature 26 °F 18 °F -10 °F (1936)
Degree Days  
Heating Degree Days 33 40  
Month to date heating degree days 1014 999  
Since 1 July heating degree days 3205 3250  
Cooling Degree Days 0 0  
Month to date cooling degree days 0 0  
Year to date cooling degree days 0 0  
Moisture  
Dew Point 28 °F    
Average Humidity 83    
Maximum Humidity 93    
Minimum Humidity 54    
Precipitation  
Precipitation 0.06 in 0.06 in 1.30 in (1990)
Month to date precipitation 1.03 1.72  
Year to date precipitation 1.03 1.72  
Snow  
Snow 0.00 in - - ()
Snow Depth 1.00 in    
Sea Level Pressure  
Sea Level Pressure 29.82 in    
Wind  
Wind Speed 16 mph (NE)    
Max Wind Speed 26 mph    
Max Gust Speed 33 mph    
Visibility 6 miles    
Events Rain , Snow    
T = Trace of Precipitation, MM = Missing Value Source: NWS Daily Summary

Daily Weather History Graph

Daily Weather History Graph

Search for Another Location

Airport or City:

Trip Planner

Search our weather history database for the weather conditions in past years. The results will help you decide how hot, cold, wet, or windy it might be!

Date:

Astronomy

Jan. 25, 2015 Rise Set
Actual Time 7:09 AM CST 4:57 PM CST
Civil Twilight 6:39 AM CST 5:27 PM CST
Nautical Twilight 6:06 AM CST 6:00 PM CST
Astronomical Twilight 5:33 AM CST 6:33 PM CST
Moon 10:10 AM CST (1/25) 11:27 PM CST (1/25)
Length of Visible Light 10h 47m
Length of Day
9h 47m
Waxing Crescent, 34% of the Moon is Illuminated
Jan 25
Waxing Crescent
Jan 26
First Quarter
Feb 3
Full
Feb 11
Last Quarter
Feb 18
New

Hourly Weather History & Observations

Time (CST) Temp. Windchill Dew Point Humidity Pressure Visibility Wind Dir Wind Speed Gust Speed Precip Events Conditions
12:53 AM 35.1 °F 30.1 °F 30.9 °F 85% 29.69 in 10.0 mi East 5.8 mph - N/A   Overcast
1:16 AM 35.1 °F 29.3 °F 30.9 °F 85% 29.67 in 10.0 mi East 6.9 mph - N/A   Overcast
1:53 AM 34.0 °F 28.0 °F 30.9 °F 89% 29.70 in 8.0 mi ENE 6.9 mph - N/A   Overcast
2:53 AM 34.0 °F 27.2 °F 30.9 °F 89% 29.70 in 6.0 mi NE 8.1 mph - N/A   Overcast
3:18 AM 34.0 °F 27.2 °F 30.9 °F 89% 29.67 in 7.0 mi ENE 8.1 mph - N/A   Overcast
3:32 AM 35.1 °F 26.9 °F 30.9 °F 85% 29.67 in 6.0 mi ENE 11.5 mph - N/A   Overcast
3:53 AM 35.1 °F 28.6 °F 32.0 °F 89% 29.70 in 6.0 mi NE 8.1 mph - N/A   Overcast
4:53 AM 36.0 °F 30.3 °F 33.1 °F 89% 29.73 in 6.0 mi NNE 6.9 mph - N/A   Overcast
5:53 AM 37.0 °F 30.4 °F 34.0 °F 89% 29.73 in 6.0 mi NE 9.2 mph - N/A   Overcast
6:24 AM 37.0 °F 29.3 °F 34.0 °F 89% 29.72 in 6.0 mi ENE 11.5 mph - N/A   Overcast
6:53 AM 37.0 °F 29.3 °F 34.0 °F 89% 29.74 in 6.0 mi NE 11.5 mph - 0.00 in Rain Light Rain
7:10 AM 37.0 °F 28.1 °F 34.0 °F 89% 29.72 in 7.0 mi NE 15.0 mph - 0.00 in Rain Light Rain
7:25 AM 37.0 °F 28.9 °F 34.0 °F 89% 29.72 in 6.0 mi NE 12.7 mph - 0.01 in Rain Light Rain
7:53 AM 35.6 °F 25.2 °F 33.8 °F 93% 29.73 in 6.0 mi NE 18.4 mph 24.2 mph N/A Rain Light Rain
8:51 AM 33.8 °F 22.8 °F 32.0 °F 93% 29.75 in 1.5 mi NE 18.4 mph - 0.02 in Rain , Snow Light Rain
8:53 AM 34.0 °F 22.1 °F 32.0 °F 92% 29.78 in 1.5 mi NE 21.9 mph - 0.02 in Rain , Snow Light Rain
9:53 AM 34.0 °F 22.4 °F 32.0 °F 92% 29.80 in 1.2 mi NE 20.7 mph - 0.01 in Snow Light Snow
10:38 AM 34.0 °F 22.4 °F 32.0 °F 92% 29.78 in 2.5 mi NE 20.7 mph 27.6 mph 0.01 in Snow Light Snow
10:53 AM 34.0 °F 22.1 °F 30.9 °F 89% 29.81 in 2.5 mi NE 21.9 mph - 0.01 in Snow Light Snow
11:47 AM 33.8 °F 24.3 °F 30.2 °F 87% 29.79 in 1.5 mi NE 13.8 mph 24.2 mph 0.00 in Snow Light Snow
11:53 AM 33.1 °F 21.9 °F 30.0 °F 89% 29.82 in 1.5 mi NNE 18.4 mph 24.2 mph 0.01 in Snow Light Snow
12:48 PM 32.0 °F 20.5 °F 28.4 °F 87% 29.80 in 2.0 mi NE 18.4 mph 29.9 mph 0.00 in Snow Light Snow
12:53 PM 32.0 °F 19.8 °F 28.9 °F 88% 29.83 in 2.0 mi NNE 20.7 mph - 0.00 in Snow Light Snow
1:13 PM 30.9 °F 18.7 °F 28.0 °F 89% 29.80 in 3.0 mi NE 19.6 mph - 0.00 in Snow Light Snow
1:38 PM 30.9 °F 19.1 °F 28.0 °F 89% 29.81 in 2.0 mi NE 18.4 mph 27.6 mph 0.00 in Snow Light Snow
1:53 PM 30.9 °F 18.4 °F 27.0 °F 85% 29.85 in 1.5 mi NNE 20.7 mph 28.8 mph 0.00 in Snow Light Snow
2:48 PM 28.4 °F 15.4 °F 26.6 °F 93% 29.84 in 1.0 mi NE 19.6 mph - 0.00 in Snow Light Snow
2:53 PM 30.0 °F 16.9 °F 26.1 °F 85% 29.88 in 1.0 mi NNE 21.9 mph - 0.00 in Snow Light Snow
3:17 PM 28.9 °F 15.1 °F 24.1 °F 82% 29.86 in 4.0 mi NNE 23.0 mph 29.9 mph 0.00 in Snow Light Snow
3:53 PM 28.9 °F 15.1 °F 21.9 °F 75% 29.91 in 10.0 mi NNE 23.0 mph 31.1 mph 0.00 in Snow Light Snow
4:53 PM 28.9 °F 15.4 °F 19.9 °F 69% 29.94 in 10.0 mi NNE 21.9 mph - 0.00 in   Overcast
5:53 PM 28.9 °F 16.5 °F 19.9 °F 69% 29.97 in 10.0 mi NNE 18.4 mph 26.5 mph 0.00 in Snow Light Snow
6:53 PM 28.9 °F 17.3 °F 19.0 °F 67% 29.99 in 10.0 mi NE 16.1 mph - 0.00 in   Overcast
7:53 PM 28.0 °F 16.1 °F 18.0 °F 66% 30.00 in 10.0 mi NNE 16.1 mph - N/A   Mostly Cloudy
8:53 PM 28.0 °F 15.7 °F 18.0 °F 66% 30.01 in 10.0 mi NNE 17.3 mph 25.3 mph N/A   Mostly Cloudy
9:53 PM 27.0 °F 14.7 °F 18.0 °F 69% 30.02 in 10.0 mi NNE 16.1 mph - N/A   Mostly Cloudy
10:53 PM 27.0 °F 15.2 °F 18.0 °F 69% 30.02 in 10.0 mi NNE 15.0 mph - N/A   Overcast
11:53 PM 26.1 °F 14.5 °F 17.1 °F 69% 30.01 in 10.0 mi ENE 13.8 mph - N/A   Mostly Cloudy